Weather in Yanishpole

Russia / Republic of Karelia     62°06′53″N   34°16′16″E
В апреле 2022 года жителям России запретили посещать сайт meteo.paraplan.net по решению Генеральной прокуратуры. Аудитория сайта уменьшилась в 10 раз. Владельцы сайта не видят смысла в поддержке погодного сервера в таких условиях. Сайт будет закрыт в октябре.
temp.,
°C
wind,
m/s
gust,
m/s
humid.,
%
clouds,
%
prec.,
mm/h
press.,
hPa
HPBL,
m
4 october, tue
tue400:00+6ne51295100 3.4 1006760
03:00+7ene41098100 7.6 1004674
06:00+9sse39925 0.4 1005409
09:00+8se3108995 0.4 1007543
12:00+10se498692 0.0 1007763
15:00+10se4987100 0.1 1008607
18:00+10ese3889100 0.1 1009406
21:00+10ese3989100 0.3 1009421
5 october, wed
wed500:00+9ese399575 0.0 1009324
03:00+9ese389639 0.0 1009335
06:00+7ssw1296100 0.1 101053
09:00+8sw128854 0.1 1010149
12:00+9w1177100 0.0 1010505
15:00+8wsw1285100 0.0 1010178
18:00+8ssw118787 0.0 101123
21:00+7ssw128962 0.0 101158
6 october, thu
thu600:00+4sw12955 0.0 101250
03:00+4s259561 0.0 1011107
06:00+6s2893100 0.0 1010275
09:00+8s4118898 0.0 1008480
12:00+10s51485100 0.0 1006647
15:00+10ssw51394100 0.4 1003837
18:00+11ssw51391100 0.1 1000674
21:00+11sw51394100 3.0 9971017
7 october, fri
fri700:00+8nw7157875 3.6 9991079
03:00+7sw41188100 3.7 1001422
06:00+9wsw61181100 0.0 10021061
09:00+9wsw51282100 0.0 1002928
12:00+11w5127395 0.0 10041213
15:00+11wsw5107725 0.1 10061001
18:00+9w5108188 0.0 1008842
21:00+8wsw4128970 0.0 1010501
8 october, sat
sat800:00+7sw41290100 0.0 1011454
03:00+8sw41294100 0.0 1010615
06:00+9sw51290100 0.0 1009715
09:00+10ssw51391100 0.2 1008856
12:00+10sw61280100 0.0 1007978
15:00+11sw61374100 0.0 10051083
18:00+10ssw5137645 0.0 10041079
21:00+10ssw6148395 0.4 10031070